Location: Bastelaar
(51.0950°N, 3.8602°E)
Time: 06:25:51
(UTC+00:00)

Cosmos 1763 Rocket - Pass Details

Date: 18 November 2025
Orbit: 728 x 774 km, 74.0° (Epoch: 11 December)

Event Time Altitude Azimuth Distance (km) Brightness Sun altitude
Rises 16:44:37 0° 336° (NNW) 3,245 6.8 -8.2°
Reaches altitude 10° 16:47:01 10° 338° (NNW) 2,308 6.0 -8.5°
Maximum altitude 16:52:15 75° 64° (ENE) 787 3.4 -9.3°
Drops below altitude 10° 16:57:24 10° 150° (SSE) 2,262 5.8 -10.1°
Sets 16:59:44 0° 152° (SSE) 3,174 6.6 -10.4°
